Location: Newark
(34.1333°N, 7.9667°W)
Time: 03:46:33
(UTC+00:00)

ITAMSAT 1 - Pass Details

Date: 17 April 2024
Orbit: 781 x 796 km, 98.8° (Epoch: 27 May)

Event Time Altitude Azimuth Distance (km) Brightness Sun altitude
Exits shadow 21:28:44 43° 220° (SW) 1,104 8.3 -27.5°
Maximum altitude 21:29:52 51° 259° (W) 992 8.3 -27.7°
Drops below altitude 10° 21:34:58 10° 336° (NNW) 2,370 10.9 -28.5°
Sets 21:37:22 0° 341° (NNW) 3,304 11.7 -28.9°
